User: anonymous   Login
Location: Bonningues
(50.7927°N, 2.0150°E)
Time: 02:50:51
(UTC+00:00)
Language:

Meteor 1-4 Rocket - Orbit

View from above orbital plane
View from above orbital plane
View from above satellite
View from above satellite

Ground track
Ground track

The orbit data is extracted from the following two-line orbital elements,

1  4394U 70037B   20302.85047988  .00001345  00000-0  44128-4 0  9999
2  4394  81.2441   8.5550 0037578 237.1127 122.6492 15.30152029752691
Epoch (UTC): 28 October 2020 20:24:41
Eccentricity: 0.0037578
inclination: 81.2441°
perigee height: 449 km
apogee height: 501 km
right ascension of ascending node: 8.5550°
argument of perigee: 237.1127°
revolutions per day: 15.30152029
mean anomaly at epoch: 122.6492°
orbit number at epoch: 75269

The dashed part of the orbit path shows where the satellite is in the earth's shadow,  

DLR